Location: Saluda
(35.2377°N, 82.3468°W)
Time: 15:21:01
(UTC+00:00)

Explorer 11/Cluster Stage 4 - Pass Details

Date: 05 October 2022
Orbit: 466 x 1247 km, 28.8° (Epoch: 08 December)

Event Time Altitude Azimuth Distance (km) Brightness Sun altitude
Rises 18:34:48 0° 264° (W) 4,161 10.6 45.9°
Reaches altitude 10° 18:37:55 10° 260° (W) 3,151 10.2 45.6°
Maximum altitude 18:45:29 50° 188° (S) 1,375 9.7 44.8°
Drops below altitude 10° 18:51:59 10° 114° (ESE) 2,708 9.4 44.1°
Sets 18:54:29 0° 109° (ESE) 3,537 9.8 43.8°
